Lid_Strength_Index
5 6 6 6 6 4 4 4 5 4 3 3 2 2 1 1 1 1 1 1 2 2 3 3 3 2 3 3 3 4 4 5 5 5 3 3 3 2 2 1 1 1 0
6 6 6 7 6 5 4 5 4 4 3 3 2 2 1 1 1 1 1 1 2 2 2 2 2 1 3 3 4 4 4 4 4 5 5 4 3 3 2 3 1 0 1
7 7 7 7 7 5 5 4 4 5 4 3 3 3 2 1 1 1 1 1 2 2 2 2 2 2 3 3 4 4 4 3 4 5 4 3 3 3 3 3 3 3 1
6 7 7 8 6 6 5 5 5 5 4 4 3 2 2 1 1 1 1 2 1 2 1 2 2 2 3 3 4 4 4 4 4 4 4 5 4 3 3 4 4 3 3
7 7 7 6 6 5 5 5 5 5 4 4 3 2 2 2 1 2 2 2 3 3 2 2 2 1 0 2 3 4 4 4 5 5 6 6 5 4 4 2 3 4 2
8 7 6 6 6 5 5 5 6 6 5 4 3 2 3 1 2 2 2 4 4 4 3 2 2 1 1 1 1 2 4 5 6 6 6 6 5 5 4 3 4 3 5
7 6 6 6 6 5 5 5 6 6 6 5 4 3 3 3 2 3 2 4 5 5 4 3 2 2 2 2 1 1 1 1 2 4 4 3 4 4 2 3 3 4 6
7 6 6 6 6 6 6 6 6 7 6 6 5 4 4 3 3 4 4 5 4 3 3 3 4 3 3 3 3 2 2 2 2 1 2 3 3 3 3 2 3 2 1
6 7 6 6 6 6 6 6 7 7 6 5 5 5 5 5 4 5 5 4 3 3 2 3 3 4 6 4 3 3 4 3 3 4 4 4 4 4 2 2 4 3 4
6 6 6 6 6 6 7 6 7 6 6 5 4 5 4 5 5 6 5 3 4 4 4 4 4 5 5 6 4 4 4 4 3 4 3 3 3 3 3 2 3 3 3
6 5 6 6 7 7 7 7 7 6 6 6 5 7 7 6 4 6 7 3 4 4 5 5 4 6 6 7 6 4 4 4 3 3 4 4 3 3 3 3 3 2 4
5 6 6 7 6 6 7 8 7 6 6 6 7 7 7 5 5 5 7 6 5 4 5 5 5 6 6 6 6 7 6 4 3 4 4 4 4 2 3 2 2 3 2
5 6 7 7 7 7 7 7 8 7 7 7 7 8 8 6 6 6 6 6 5 5 3 4 6 7 7 6 6 6 6 4 4 4 4 4 4 2 2 2 2 3 2
6 6 7 7 7 7 7 8 8 8 7 7 7 7 8 7 6 6 6 6 5 5 5 5 5 6 6 5 5 4 5 3 4 4 4 4 3 3 4 3 3 3 3
6 7 7 7 7 7 8 8 7 7 7 7 7 7 8 7 6 7 7 7 8 8 8 6 6 5 5 5 4 4 3 3 4 4 4 3 3 3 4 3 3 4 4
6 6 7 7 8 7 8 7 8 8 8 9 8 6 7 7 8 8 7 8 8 9 7 5 6 6 5 5 3 4 4 3 3 3 4 3 3 3 3 3 3 3 3
6 6 6 7 7 7 8 8 8 7 10 10 10 9 8 8 8 8 7 8 8 9 6 5 5 5 5 4 3 3 3 2 2 3 3 3 2 2 3 2 2 3 3
5 6 6 6 6 7 7 7 7 8 8 8 10 9 10 9 9 9 8 8 6 8 6 5 5 4 4 4 4 4 4 3 4 3 3 3 3 3 3 3 3 3 3
4 5 6 6 6 6 6 6 6 7 7 7 8 10 10 10 11 10 9 6 5 4 5 5 4 4 5 4 4 3 2 2 4 4 3 3 3 3 3 3 3 6 6
6 6 6 5 5 6 6 6 6 6 6 6 6 7 9 10 10 10 9 7 5 4 4 4 3 4 4 4 4 4 4 2 3 4 3 4 3 3 3 3 3 4 3
9 7 9 5 4 4 5 6 5 5 6 6 6 6 10 8 8 8 8 8 5 4 3 3 3 3 3 4 3 4 4 4 3 3 4 4 5 3 3 4 4 3 3
10 9 8 8 7 6 4 3 3 4 4 5 5 5 12 7 7 7 7 7 6 4 2 2 2 2 2 2 3 3 4 3 3 3 4 3 4 4 3 4 3 4 3
11 10 10 10 8 8 8 8 6 4 3 3 4 4 6 7 6 7 7 6 5 4 2 2 2 2 1 2 2 3 4 3 2 2 3 3 3 3 3 4 3 3 4
10 10 10 10 10 10 10 9 8 9 8 6 3 3 3 5 5 5 5 5 5 4 3 2 1 1 1 1 1 3 3 3 2 2 2 3 3 4 4 3 4 4 3
12 13 13 12 10 9 10 10 11 10 9 8 8 5 2 3 4 5 5 4 5 6 6 5 3 1 1 1 1 1 5 9 3 5 2 2 2 3 3 4 3 4 3
12 12 12 12 12 11 10 9 9 10 10 8 7 7 4 2 3 4 4 5 5 5 6 7 7 6 6 5 6 6 10 11 7 10 1 2 3 3 3 3 4 4 3